Regional Weather Roundup
Issued by NWS

Home | Current Version | Previous Version | Text Only | Print | Product List | Glossary Off
Versions: 1 2 3 4 5 6 7 8 9 10 11 12 13 14 15 16 17 18 19 20 21 22 23 24 25 26 27 28 29 30 31 32 33 34 35 36 37 38 39 40 41 42 43 44 45 46 47 48 49 50

000
ASUS43 KMKX 231700
RWRWI

WISCONSIN REGIONAL WEATHER ROUNDUP
NATIONAL WEATHER SERVICE MILWAUKEE/SULLIVAN WI
1100 AM CST SUN NOV 23 2014

NOTE: "FAIR" INDICATES FEW OR NO CLOUDS BELOW 12,000 FEET WITH NO
SIGNIFICANT WEATHER AND/OR OBSTRUCTIONS TO VISIBILITY.

WIZ001-002-006>008-014>016-023>028-231800-
NORTHWEST WISCONSIN

CITY           SKY/WX    TMP DP  RH WIND       PRES   REMARKS
SUPERIOR ARPT  FOG       38  38 100 NW3       29.45F VSB<1/4
ASHLAND        CLOUDY    48  44  86 SW7       29.45F
HAYWARD        FOG       44  44 100 S9        29.44F VSB<1/4
SIREN          FOG       45  44  98 S3        29.45S VSB 1/4
CUMBERLAND     FOG       41  41 100 S6        29.45F VSB<1/4
RICE LAKE      FOG       43  42  97 CALM      29.47F VSB<1/4
CHETEK         FOG       44  44 100 E6        29.46F VSB<1/4
LADYSMITH      FOG       46  45  97 SE7       29.49F VSB<1/4
EAU CLAIRE     CLOUDY    49  47  93 S8        29.46F FOG
MENOMONIE      CLOUDY    50  49  95 SE7       29.47F FOG
NEW RICHMOND   FOG       45  45 100 SE3       29.45F VSB<1/4
OSCEOLA        FOG       44  44 100 CALM      29.47F VSB<1/4
$$

WIZ003>005-009-010-017-018-231800-
NORTH CENTRAL WISCONSIN

CITY           SKY/WX    TMP DP  RH WIND       PRES   REMARKS
MANITOWISH WTR FOG       42  42 100 S7        29.49F VSB<1/4
ARBOR VITAE    FOG       44  43  96 S7        29.50F VSB<1/4
WOODRUFF       FOG       44  43  96 S7        29.50F VSB<1/4
RHINELANDER    FOG       43  43 100 S6        29.52F VSB 1/4
EAGLE RIVER    FOG       44  44 100 S6        29.51F VSB 1/4
LAND O LAKES   FOG       44  44 100 S7        29.51F VSB 1/4
PHILLIPS       FOG       42  42 100 S8        29.47F VSB<1/4
TOMAHAWK       FOG       44  43  97 CALM      29.53S VSB 1/4
MEDFORD        FOG       42  42 100 S8        29.51F VSB<1/4
MERRILL        FOG       45  45 100 S5        29.53F VSB 1/4
$$

WIZ029-030-035-036-043>047-231800-
CENTRAL WISCONSIN

CITY           SKY/WX    TMP DP  RH WIND       PRES   REMARKS
WAUSAU         FOG       45  45 100 S13       29.51F VSB 1/4
MOSINEE        NOT AVBL
MARSHFIELD     FOG       47  46  97 S12       29.51F VSB<1/4
STEVENS POINT  FOG       46  46 100 S9        29.56F VSB 1/2
WAUPACA        CLOUDY    50  49  96 S7        29.58F FOG
WAUTOMA        NOT AVBL
WISC RAPIDS    CLOUDY    49  47  93 S8        29.55F FOG
CAMP DOUGLAS   NOT AVBL
$$

WIZ011>013-019>022-031-037>040-048>050-231800-
NORTHEAST WISCONSIN

CITY           SKY/WX    TMP DP  RH WIND       PRES   REMARKS
ANTIGO         FOG       39  39 100 S10       29.54F VSB<1/4 WCI  32
SHAWANO        CLOUDY    49  48  95 S3        29.58F FOG
OCONTO         CLOUDY    44  44 100 S6        29.59F
STURGEON BAY   CLOUDY    45  43  93 S20G26    29.61F
GREEN BAY      CLOUDY    48  46  93 S10       29.60S FOG
MANITOWOC      CLOUDY    45  45 100 S14       29.64F FOG
APPLETON         N/A     48  48 100 S17       29.60F FOG
CLINTONVILLE   CLOUDY    46  46 100 S7        29.58F FOG
OSHKOSH        CLOUDY    48  46  93 S14       29.61F FOG
$$

WIZ032>034-041-042-053>061-231800-
SOUTHWEST WISCONSIN

CITY           SKY/WX    TMP DP  RH WIND       PRES   REMARKS
LA CROSSE      CLOUDY    51  49  92 S10       29.50F
SPARTA         CLOUDY    50  49  97 S9        29.53F FOG
VIROQUA        CLOUDY    49  49 100 S10       29.53F
BOSCOBEL       LGT RAIN  53  49  86 VRB7      29.53F
PRAIRIE DU CHI DRIZZLE   51  48  90 S3        29.54F
PLATTEVILLE    CLOUDY    49  48  97 S8        29.58F
$$

WIZ056-057-062-063-064-067-068-231800-
SOUTH CENTRAL WISCONSIN

CITY           SKY/WX    TMP DP  RH WIND       PRES   REMARKS
REEDSBURG      CLOUDY    49  49  98 S7G16     29.57F FOG
BARABOO/DELLS  CLOUDY    48  47  94 S12G20    29.58F FOG
LONE ROCK      LGT RAIN  54  48  82 SE6       29.57F
MINERAL POINT  RAIN      50  46  87 S12       29.58F
MADISON        RAIN      48  46  93 S12       29.61F FOG
MIDDLETON      CLOUDY    50  49  95 S12       29.60F
WATERTOWN      LGT RAIN  47  47 100 S9        29.64S
MONROE         RAIN      46  46 100 S10       29.60F
JANESVILLE     LGT RAIN  48  46  93 S8        29.63F
$$

WIZ051-052-058>065-066-070>072-231800-
SOUTHEAST WISCONSIN

CITY           SKY/WX    TMP DP  RH WIND       PRES   REMARKS
MILWAUKEE      LGT RAIN  49  46  90 S9        29.66F
WAUKESHA       LGT RAIN  46  45  93 S12       29.66F FOG
MILWAUKEE/TIMM RAIN      48  45  87 S13       29.66F FOG
RACINE         LGT RAIN  47  44  90 S9        29.68F
BURLINGTON     LGT RAIN  46  45  97 S8        29.66F
KENOSHA        LGT RAIN  49  46  90 S10       29.67F FOG
FOND DU LAC    CLOUDY    50  45  83 S10       29.61F
SHEBOYGAN      CLOUDY    48  45  89 S13       29.63F FOG
WEST BEND      RAIN      48  43  81 S8        29.64F
JUNEAU         RAIN      47  45  95 S10G16    29.64S
$$

LSZ147-162-231800-
LAKE SUPERIOR

STATION/POSITION TIME  TEMP    WIND        PRES    WAVE
                       AIR SEA DIR/SP/G            HT/PER
                 (UTC) (F)     (DEG/KT/KT) (MB)    (FT/S)
DEVILS ISLAND    1600   42     210/  4/  4  997.6R
PORT WING        1640   38     170/  2/  3  997.6S
SAXON HARBOR     1600   50     200/  4/ 13  997.3S
$$

LMZ867-665-643>646-231800-
LAKE MICHIGAN

STATION/POSITION TIME  TEMP    WIND        PRES    WAVE
                       AIR SEA DIR/SP/G            HT/PER
                 (UTC) (F)     (DEG/KT/KT) (MB)    (FT/S)
CHAMBERS ISLAND  1600   45     150/  9/ 16 1003.4F
N MID LAKE BUOY  1550   45 42  190/ 23/ 27 1004.0F   6/ 6
NORTHPORT PIER   1600   44     160/  9/ 14 1004.1S
SISTER BAY       1643          190/ 21/ 26   N/A
ALGOMA LAKESHORE 1443          220/ 13/ 15   N/A
KEWAUNEE LAKESHO 1600   40     180/ 12/ 13 1003.1F
SHEBOYGAN LAKESH 1600   44 39  180/ 16/ 17 1004.5F
PORT WASHINGTON  1600   44     200/  7/ 10 1005.4F
ATWATER BUOY     1600   50      CALM  /  4 1006.7F
MILWAUKEE LAKESH 1600   49     190/ 14/ 17   N/A
S MID LAKE BUOY  1550   45 42  170/ 14/ 16 1007.2F   2/ 5
KENOSHA   LAKESH 1600   44     180/ 10/ 15 1006.1F
$$

TC  - TEMPERATURE IN CELSIUS
VSB - VISIBILITY IN STATUTE MILES
WCI - WIND CHILL INDEX
HX  - HEAT INDEX




USA.gov is the U.S. government's official web portal to all federal, state and local government web resources and services.